Flag for Poland Weather past 2 weeks in Olsztyn, Poland

Now
71 °F

Passing clouds.


Feels Like: 77 °F
Forecast: 52 / 70 °F
Wind: 9 mph from Southeast

Location: Ketrzyn

Current Time: Sep 18, 2014 at 2:32:52 PM

Latest Report: Sep 18, 2014 at 1:00 PM


Visibility: 14 mi

Pressure: 30.19 "Hg

Humidity: 41%

Dew point: 46 °F

Location of OlsztynLocation

Historic Weather in Olsztyn — Graph

°F

Olsztyn temperature yesterday

Maximum temperature yesterday: 69 °F (at 4:00 PM)
Minimum temperature yesterday: 47 °F (at 5:00 AM)
Average temperature yesterday: 58 °F

Past Weeks' High & Low Weather Summary

 TemperatureHumidityPressure
High80 °F (Sep 13, 4:00 PM)97% (Sep 11, 3:00 AM)30.40 "Hg (Sep 11, 3:00 AM)
Low47 °F (Sep 16, 6:00 AM)34% (Sep 7, 5:00 PM)29.90 "Hg (Sep 9, 4:00 PM)
Average62 °F68%30.15 "Hg
* Reported Sep 3 1:00 PM — Sep 18 1:00 PM, Olsztyn, Weather by CustomWeather, © 2014

Note: Actual official high and low records may vary slightly from our data, if they occured in-between our weather recording intervals... More about our weather records

Advertising

Olsztyn weather history for previous 24 hours

 ConditionsComfort  
Time TempWeatherWind HumidityBarometerVisibility
1:00 PM
Sep 18
71 °FPassing clouds.9 mph41%30.19 "Hg14 mi
12:00 PM69 °FPassing clouds.7 mph47%30.22 "Hg12 mi
11:00 AM66 °FSunny.7 mph55%30.23 "Hg15 mi
10:00 AM62 °FSunny.5 mph64%30.24 "Hg19 mi
9:00 AM57 °FPassing clouds.6 mph73%30.24 "Hg12 mi
8:00 AM53 °FPassing clouds.6 mph80%30.24 "Hg10 mi
7:00 AM50 °FFog.5 mph85%30.24 "Hg9 mi
6:00 AM50 °FClear.5 mph87%30.24 "Hg9 mi
5:00 AM50 °FClear.3 mph85%30.24 "Hg10 mi
4:00 AM50 °FClear.3 mph85%30.24 "Hg9 mi
3:00 AM51 °FClear.3 mph83%30.25 "Hg11 mi
2:00 AM51 °FClear.5 mph81%30.25 "Hg11 mi
1:00 AM53 °FClear.5 mph77%30.25 "Hg13 mi
12:00 AM54 °FClear.5 mph74%30.25 "Hg14 mi
11:00 PM
Sep 17
55 °FClear.3 mph71%30.25 "Hg15 mi
10:00 PM56 °FClear.3 mph70%30.25 "Hg15 mi
9:00 PM57 °FClear.3 mph64%30.25 "Hg15 mi
8:00 PM59 °FPassing clouds.3 mph59%30.24 "Hg9 mi
7:00 PM61 °FPassing clouds.3 mph55%30.23 "Hg10 mi
6:00 PM65 °FScattered clouds.5 mph47%30.22 "Hg19 mi
5:00 PM68 °FScattered clouds.6 mph42%30.22 "Hg22 mi
4:00 PM69 °FScattered clouds.7 mph41%30.23 "Hg19 mi
3:00 PM68 °FScattered clouds.8 mph43%30.24 "Hg18 mi
2:00 PM67 °FPartly sunny.8 mph43%30.26 "Hg18 mi
Weather by CustomWeather, © 2014

See weather overviewHow to use our weather pages